Regional Weather Roundup
Issued by NWS

Home | Current Version | Previous Version | Text Only | Print | Product List | Glossary On
Versions: 1 2 3 4 5 6 7 8 9 10 11 12 13 14 15 16 17 18 19 20 21 22 23 24 25 26 27 28 29 30 31 32 33 34 35 36 37 38 39 40 41 42 43 44 45 46 47 48 49 50
000
ASUS44 KBMX 020010
RWRAL

ALABAMA REGIONAL WEATHER ROUNDUP
NATIONAL WEATHER SERVICE BIRMINGHAM AL
700 PM CDT MON SEP 01 2014

NOTE: "FAIR" INDICATES FEW OR NO CLOUDS BELOW 12,000 FEET
WITH NO SIGNIFICANT WEATHER AND/OR OBSTRUCTIONS TO VISIBILITY.

THE REMARK "TC" DENOTES TEMPERATURE IN DEGREES CELSIUS.

ALZ001>011-014-016>018-020-020100-
NORTH ALABAMA

CITY           SKY/WX    TMP DP  RH WIND       PRES   REMARKS
MUSCLE SHOALS  CLEAR     86  69  56 CALM      30.02S HX  90
6HR MIN TEMP:  86; 6HR MAX TEMP:  92;

HUNTSVILLE     PTCLDY    85  73  67 S3        30.02S HX  91
6HR MIN TEMP:  85; 6HR MAX TEMP:  93;

DECATUR        CLEAR     86  71  60 MISG      30.02S HX  91
6HR MIN TEMP:  86; 6HR MAX TEMP:  93;

HALEYVILLE     FAIR      82  72  72 CALM      30.06S
6HR MIN TEMP:  83; 6HR MAX TEMP:  90;

GADSDEN        PTCLDY    84  68  58 CALM      30.03S
6HR MIN TEMP:  84; 6HR MAX TEMP:  95;

$$

ALZ012-013-022-023-030>036-040>044-020100-
WEST CENTRAL ALABAMA

CITY           SKY/WX    TMP DP  RH WIND       PRES   REMARKS
TUSCALOOSA     MOCLDY    90  68  48 S5        30.01S HX  94
6HR MIN TEMP:  90; 6HR MAX TEMP:  97;

$$

ALZ015-024>027-033>036-040>044-020100-
CENTRAL ALABAMA

CITY           SKY/WX    TMP DP  RH WIND       PRES   REMARKS
BIRMINGHAM     MOCLDY    88  67  49 SE5       30.05R HX  91
6HR MIN TEMP:  88; 6HR MAX TEMP:  93;

MONTGOMERY     PTCLDY    87  72  60 CALM      30.03R HX  93
6HR MIN TEMP:  87; 6HR MAX TEMP:  95;

SHELBY CO ARPT MOCLDY    86  69  56 S3        30.04R HX  90
6HR MIN TEMP:  86; 6HR MAX TEMP:  96;

MAXWELL AFB    CLEAR     89  71  55 S2        30.03R HX  94
6HR MIN TEMP:  89; 6HR MAX TEMP:  95;

GREENVILLE     MOCLDY    78  73  84 CALM      30.06S
6HR MIN TEMP:  78; 6HR MAX TEMP:  95; 6HR PCP:  0.06;

$$

ALZ019-021-028-029-037-038-045>048-020100-
EAST CENTRAL ALABAMA

CITY           SKY/WX    TMP DP  RH WIND       PRES   REMARKS
ANNISTON       MOCLDY    83  72  69 CALM      30.06S
6HR MIN TEMP:  80; 6HR MAX TEMP:  91; 6HR PCP:  0.01;

ALEXANDER CITY CLEAR     86  70  57 CALM      30.07R HX  91
6HR MIN TEMP:  86; 6HR MAX TEMP:  96;

AUBURN         PTCLDY    86  66  51 SW5       30.11R
6HR MIN TEMP:  86; 6HR MAX TEMP:  91;

$$

ALZ051>064-020100-
SOUTHWEST ALABAMA

CITY           SKY/WX    TMP DP  RH WIND       PRES   REMARKS
MOBILE         CLOUDY    84  76  76 S8        30.06R HX  93
6HR MIN TEMP:  84; 6HR MAX TEMP:  92;

BROOKLEY FIELD PTCLDY    85  76  74 S8        30.06R HX  94
6HR MIN TEMP:  85; 6HR MAX TEMP:  92;

EVERGREEN      MOCLDY    86  73  65 S5        30.05R HX  93
6HR MIN TEMP:  86; 6HR MAX TEMP:  96;

$$

ALZ049-050-065>069-020100-
SOUTHEAST ALABAMA

CITY           SKY/WX    TMP DP  RH WIND       PRES   REMARKS
DOTHAN         PTCLDY    86  71  60 SW8       30.08R HX  91
6HR MIN TEMP:  86; 6HR MAX TEMP:  98;

OZARK          CLEAR     85  72  64 S7        30.04R HX  91
6HR MIN TEMP:  85; 6HR MAX TEMP:  97;

TROY           PTCLDY    85  74  69 SW7       30.05R HX  92
6HR MIN TEMP:  85; 6HR MAX TEMP:  95;

EUFAULA        TSTM      77  73  88 SW7       30.06R FOG
6HR MIN TEMP:  78; 6HR MAX TEMP:  99; 6HR PCP:  0.20;

$$


USA.gov is the U.S. government's official web portal to all federal, state and local government web resources and services.